Torna al catalogo

STARLINK-34192

AttivoComunicazioniVLEO
NORAD 64014·PAYLOAD·🇺🇸 United States

Lanciato May 14, 2025 da Cape Canaveral Space Force Station

Loading…

Prossimi Passaggi (prossime 24 ore)

TLE

AggiornatoSource: CelesTrak SupGP

Epoca: Sep 14, 2026, 20:55 UTC

1 64014C 25101W   26257.87201389  .00031223  00000+0  11313-2 0  2572
2 64014  43.0020   9.9322 0001305 264.9845 104.4653 15.27551339    13

Traccia STARLINK-34192 in tempo reale con AllMySat

Download on the App Store